{"data":{"norad_id":65571,"intl_designator":"2025-203G","name":"PRAETORIAN SDA_608","alt_names":[],"object_type":"PAYLOAD","status":"ACTIVE","operator":null,"country":"US","launch_date":"2025-09-10","launch_site_code":"AFWTR","launch_vehicle":null,"mission":null,"orbit_class":"UNKNOWN","rcs_meters":null,"size_class":null,"mass_kg":null,"dimensions":null,"purposes":["military"],"wikipedia_slug":null,"has_3d_model":false,"image_url":null,"decayed_at":null,"tle_current":{"epoch":"2026-09-20T00:14:14.686080Z","epoch_age_seconds":56688,"freshness":"FRESH","line1":"1 65571U 25203G   26263.00989220  .00000059  00000+0  43005-4 0  9994","line2":"2 65571  81.2973 283.0279 0005075 309.0536  51.0168 13.83824981 51802","mean_motion":13.83824981,"eccentricity":0.0005075,"inclination_deg":81.2973,"raan_deg":283.0279,"arg_perigee_deg":309.0536,"mean_anomaly_deg":51.0168,"bstar":4.3005e-5,"rev_number":5180,"period_min":104.05940200324,"perigee_km":946.63206355147,"apogee_km":954.07047914689,"semimajor_km":7328.4882713492,"source":"CELESTRAK","updated_at":"2026-09-20T09:00:47.715446Z"}}}